• In Belarus
  • List of Countries
  • For 7 days
  • Water Temperature
  • Satellite Maps
  • Weather Map
  • Weather Widgets
  • user-avatar
    Login

    Hourly Weather Halhgol

    Today, 20 May, Monday

    Time Temperature Precipitation Wind Pressure Humidity
    00:00 +7°C° 0.1 mm 8 mps 691 mmHg 61%
    01:00 +7°C° 0.1 mm 8 mps 691 mmHg 65%
    02:00 +6°C° 0 mm 9 mps 690 mmHg 65%
    03:00 +6°C° 0 mm 9 mps 690 mmHg 64%
    04:00 +6°C° 0 mm 9 mps 690 mmHg 64%
    05:00 +5°C° 0 mm 9 mps 690 mmHg 63%
    06:00 +7°C° 0 mm 10 mps 691 mmHg 57%
    07:00 +8°C° 0 mm 10 mps 691 mmHg 51%
    08:00 +9°C° 0 mm 11 mps 691 mmHg 44%
    09:00 +9°C° 0 mm 11 mps 691 mmHg 43%
    10:00 +11°C° 0 mm 11 mps 691 mmHg 41%
    11:00 +11°C° 0 mm 11 mps 690 mmHg 39%
    12:00 +12°C° 0 mm 11 mps 690 mmHg 38%
    13:00 +12°C° 0 mm 11 mps 690 mmHg 37%
    14:00 +12°C° 0 mm 11 mps 690 mmHg 37%
    15:00 +12°C° 0 mm 11 mps 690 mmHg 36%
    16:00 +12°C° 0 mm 11 mps 690 mmHg 35%
    17:00 +12°C° 0 mm 12 mps 690 mmHg 34%
    18:00 +11°C° 0 mm 10 mps 690 mmHg 36%
    19:00 +10°C° 0 mm 9 mps 690 mmHg 38%
    20:00 +9°C° 0 mm 8 mps 690 mmHg 41%
    21:00 +9°C° 0 mm 8 mps 690 mmHg 41%
    22:00 +7°C° 0 mm 8 mps 690 mmHg 42%
    23:00 +7°C° 0 mm 9 mps 690 mmHg 43%

    Tomorrow, 21 May, Tuesday

    Time Temperature Precipitation Wind Pressure Humidity
    00:00 +7°C° 0 mm 9 mps 690 mmHg 44%
    01:00 +7°C° 0 mm 9 mps 690 mmHg 44%
    02:00 +6°C° 0 mm 9 mps 690 mmHg 44%
    03:00 +6°C° 0 mm 9 mps 690 mmHg 45%
    04:00 +6°C° 0 mm 10 mps 690 mmHg 45%
    05:00 +5°C° 0 mm 10 mps 690 mmHg 46%
    06:00 +6°C° 0 mm 10 mps 690 mmHg 44%
    07:00 +7°C° 0 mm 11 mps 690 mmHg 41%
    08:00 +8°C° 0 mm 12 mps 691 mmHg 39%
    09:00 +10°C° 0 mm 12 mps 691 mmHg 36%
    10:00 +12°C° 0 mm 12 mps 691 mmHg 33%
    11:00 +13°C° 0 mm 12 mps 691 mmHg 30%
    12:00 +14°C° 0 mm 12 mps 691 mmHg 27%
    13:00 +15°C° 0 mm 12 mps 691 mmHg 25%
    14:00 +17°C° 0 mm 12 mps 691 mmHg 22%
    15:00 +17°C° 0 mm 12 mps 691 mmHg 22%
    16:00 +17°C° 0 mm 11 mps 691 mmHg 21%
    17:00 +17°C° 0 mm 11 mps 691 mmHg 21%
    18:00 +16°C° 0 mm 9 mps 691 mmHg 24%
    19:00 +14°C° 0 mm 7 mps 691 mmHg 27%
    20:00 +13°C° 0 mm 5 mps 691 mmHg 30%
    21:00 +12°C° 0 mm 4 mps 691 mmHg 33%
    22:00 +11°C° 0 mm 4 mps 691 mmHg 35%
    23:00 +10°C° 0 mm 4 mps 691 mmHg 38%

    Day after tomorrow, 22 May, Wednesday

    Time Temperature Precipitation Wind Pressure Humidity
    00:00 +10°C° 0 mm 3 mps 691 mmHg 40%
    01:00 +9°C° 0 mm 3 mps 691 mmHg 42%
    02:00 +9°C° 0 mm 3 mps 691 mmHg 44%
    03:00 +8°C° 0 mm 3 mps 691 mmHg 45%
    04:00 +8°C° 0 mm 3 mps 691 mmHg 47%
    05:00 +8°C° 0 mm 3 mps 691 mmHg 48%
    06:00 +10°C° 0 mm 4 mps 692 mmHg 43%
    07:00 +13°C° 0 mm 4 mps 692 mmHg 37%
    08:00 +15°C° 0 mm 5 mps 692 mmHg 32%
    09:00 +17°C° 0 mm 5 mps 692 mmHg 28%
    10:00 +19°C° 0 mm 6 mps 692 mmHg 25%
    11:00 +21°C° 0 mm 6 mps 692 mmHg 21%
    12:00 +22°C° 0 mm 6 mps 692 mmHg 21%
    13:00 +23°C° 0 mm 6 mps 692 mmHg 21%
    14:00 +24°C° 0 mm 6 mps 692 mmHg 21%
    15:00 +24°C° 0 mm 6 mps 691 mmHg 21%
    16:00 +25°C° 0 mm 5 mps 691 mmHg 21%
    17:00 +25°C° 0 mm 5 mps 691 mmHg 21%
    18:00 +22°C° 0 mm 3 mps 691 mmHg 24%
    19:00 +21°C° 0 mm 2 mps 691 mmHg 27%
    20:00 +18°C° 0 mm 0 mps 690 mmHg 30%
    21:00 +20°C° 0 mm 1 mps 691 mmHg 30%
    22:00 +19°C° 0 mm 1 mps 691 mmHg 31%
    23:00 +18°C° 0 mm 2 mps 691 mmHg 31%

    23 May, Thursday

    Time Temperature Precipitation Wind Pressure Humidity
    00:00 +17°C° 0 mm 2 mps 691 mmHg 32%
    01:00 +17°C° 0 mm 3 mps 691 mmHg 33%
    02:00 +16°C° 0 mm 3 mps 690 mmHg 34%
    03:00 +15°C° 0 mm 4 mps 690 mmHg 35%
    04:00 +15°C° 0 mm 4 mps 690 mmHg 36%
    05:00 +14°C° 0 mm 4 mps 690 mmHg 37%
    06:00 +17°C° 0 mm 5 mps 690 mmHg 35%
    07:00 +20°C° 0 mm 5 mps 691 mmHg 33%
    08:00 +22°C° 0 mm 5 mps 691 mmHg 31%
    09:00 +24°C° 0 mm 6 mps 691 mmHg 28%
    10:00 +27°C° 0 mm 6 mps 691 mmHg 25%
    11:00 +29°C° 0 mm 6 mps 691 mmHg 23%
    12:00 +30°C° 0 mm 6 mps 691 mmHg 20%
    13:00 +33°C° 0 mm 5 mps 691 mmHg 18%
    14:00 +34°C° 0 mm 5 mps 690 mmHg 15%
    15:00 +34°C° 0 mm 5 mps 690 mmHg 15%
    16:00 +34°C° 0 mm 5 mps 690 mmHg 14%
    17:00 +34°C° 0 mm 4 mps 690 mmHg 14%
    18:00 +31°C° 0 mm 3 mps 690 mmHg 16%
    19:00 +29°C° 0 mm 2 mps 689 mmHg 18%
    20:00 +27°C° 0 mm 1 mps 689 mmHg 21%
    21:00 +26°C° 0 mm 2 mps 689 mmHg 22%
    22:00 +25°C° 0 mm 3 mps 689 mmHg 23%
    23:00 +23°C° 0 mm 4 mps 689 mmHg 24%

    24 May, Friday

    Time Temperature Precipitation Wind Pressure Humidity
    00:00 +23°C° 0 mm 4 mps 689 mmHg 25%
    01:00 +22°C° 0 mm 4 mps 689 mmHg 26%
    02:00 +21°C° 0 mm 4 mps 689 mmHg 27%
    03:00 +21°C° 0 mm 5 mps 689 mmHg 27%
    04:00 +21°C° 0 mm 5 mps 689 mmHg 27%
    05:00 +20°C° 0 mm 5 mps 689 mmHg 27%
    06:00 +21°C° 0 mm 5 mps 690 mmHg 27%
    07:00 +23°C° 0 mm 5 mps 690 mmHg 27%
    08:00 +24°C° 0 mm 6 mps 691 mmHg 27%
    09:00 +27°C° 0 mm 6 mps 692 mmHg 28%
    10:00 +28°C° 0 mm 7 mps 692 mmHg 29%
    11:00 +29°C° 0 mm 8 mps 693 mmHg 29%
    12:00 +29°C° 0 mm 7 mps 693 mmHg 28%
    13:00 +30°C° 0 mm 7 mps 693 mmHg 27%
    14:00 +30°C° 0 mm 7 mps 693 mmHg 26%
    15:00 +29°C° 0 mm 7 mps 694 mmHg 28%
    16:00 +28°C° 0 mm 7 mps 694 mmHg 30%
    17:00 +27°C° 0 mm 7 mps 694 mmHg 32%
    18:00 +24°C° 0 mm 7 mps 694 mmHg 33%
    19:00 +22°C° 0 mm 6 mps 694 mmHg 33%
    20:00 +21°C° 0 mm 6 mps 694 mmHg 34%
    21:00 +20°C° 0 mm 6 mps 694 mmHg 33%
    22:00 +18°C° 0 mm 7 mps 694 mmHg 33%
    23:00 +17°C° 0 mm 7 mps 694 mmHg 32%

    25 May, Saturday

    Time Temperature Precipitation Wind Pressure Humidity
    00:00 +17°C° 0.6 mm 7 mps 693 mmHg 36%
    01:00 +16°C° 0.6 mm 6 mps 693 mmHg 40%
    02:00 +15°C° 0.6 mm 6 mps 692 mmHg 44%
    03:00 +15°C° 0.5 mm 7 mps 692 mmHg 47%
    04:00 +15°C° 0.5 mm 7 mps 692 mmHg 49%
    05:00 +15°C° 0.5 mm 8 mps 692 mmHg 51%
    06:00 +16°C° 0.2 mm 9 mps 692 mmHg 48%
    07:00 +17°C° 0.2 mm 9 mps 691 mmHg 46%
    08:00 +18°C° 0.2 mm 10 mps 691 mmHg 43%
    09:00 +19°C° 0.1 mm 10 mps 691 mmHg 43%
    10:00 +21°C° 0.1 mm 10 mps 691 mmHg 43%
    11:00 +21°C° 0.1 mm 10 mps 690 mmHg 43%
    12:00 +21°C° 0.1 mm 10 mps 690 mmHg 43%
    13:00 +22°C° 0.1 mm 10 mps 689 mmHg 44%
    14:00 +22°C° 0.1 mm 10 mps 689 mmHg 45%
    15:00 +21°C° 2.4 mm 8 mps 688 mmHg 52%
    16:00 +20°C° 2.4 mm 7 mps 688 mmHg 59%
    17:00 +19°C° 2.4 mm 5 mps 687 mmHg 66%
    18:00 +17°C° 1.3 mm 7 mps 687 mmHg 68%
    19:00 +16°C° 1.3 mm 9 mps 687 mmHg 71%
    20:00 +14°C° 1.3 mm 11 mps 687 mmHg 73%
    21:00 +14°C° 1.1 mm 10 mps 687 mmHg 73%
    22:00 +14°C° 1.1 mm 10 mps 687 mmHg 72%
    23:00 +15°C° 1.1 mm 9 mps 687 mmHg 72%
    Show more